Theta_e
301 303 301 300 301 301 301 301 300 299 300 300 303 303 302 302 301 298 296 296 296 297 298 301 303 303 303 302 302 303 303 304 303 303 304 311 317 320 328 326 326 330 329 330
303 301 300 300 301 301 301 300 299 299 299 298 298 298 298 301 296 294 294 293 293 294 295 297 300 302 302 302 302 303 303 304 304 304 305 318 318 322 328 329 328 328 328 328
301 300 300 300 300 300 299 298 300 297 297 297 297 299 300 296 293 292 291 290 290 291 293 295 297 300 302 302 302 303 304 304 304 310 306 317 324 323 327 326 327 326 327 327
301 300 299 299 299 299 297 297 296 297 298 298 298 301 295 293 292 291 289 288 287 289 297 294 296 298 301 302 302 303 304 303 314 314 312 323 322 325 325 327 326 326 325 325
302 300 299 298 298 298 296 296 296 297 298 298 300 301 294 291 290 289 288 286 286 291 300 297 296 298 300 302 302 303 303 303 318 317 317 321 324 326 325 325 325 326 326 326
301 300 299 298 298 297 295 295 299 301 301 301 303 302 292 290 288 287 286 285 286 291 296 301 302 301 300 301 302 303 304 311 317 319 321 324 323 325 325 325 325 325 324 322
300 300 299 298 297 296 294 294 297 300 303 303 301 296 291 288 287 286 285 284 286 289 293 295 300 306 307 309 309 308 313 315 317 321 322 324 326 325 323 324 324 324 323 322
298 297 298 298 296 293 295 292 291 296 300 300 299 295 293 288 286 284 284 285 285 286 289 292 295 299 301 304 306 310 313 314 313 320 321 321 322 323 322 321 320 320 320 319
298 297 299 297 297 293 292 292 293 295 297 298 298 294 295 288 285 284 283 283 284 285 287 289 292 294 297 300 299 305 308 301 309 316 316 317 316 317 316 316 316 315 310 308
297 296 300 298 295 293 293 293 293 293 290 296 299 291 287 285 282 282 282 282 283 283 285 287 289 290 293 294 294 296 297 296 302 308 311 310 308 310 312 313 311 310 308 308
299 296 297 297 291 290 291 290 293 293 292 294 295 290 285 283 282 281 281 281 282 282 283 285 286 288 289 291 291 291 290 294 299 304 304 304 304 305 307 308 308 306 302 304
298 295 299 294 293 294 292 289 289 289 290 289 290 290 284 281 281 280 280 280 281 281 282 283 285 287 287 288 289 286 286 300 295 299 301 298 295 295 297 300 300 301 301 301
295 299 297 296 296 295 291 291 290 290 292 292 293 293 285 282 280 279 279 279 279 280 282 283 284 285 285 285 284 284 289 294 297 299 298 297 296 296 298 297 296 299 300 292
296 298 293 294 293 294 290 289 290 290 289 286 289 287 284 281 279 278 278 278 279 280 281 282 283 283 283 282 282 283 294 294 297 298 297 296 294 295 296 294 288 288 289 287
295 296 291 291 291 294 292 286 287 287 287 289 286 287 284 280 278 277 277 277 278 279 280 281 281 282 281 281 282 287 290 294 294 294 292 289 288 287 286 285 284 284 285 284
296 297 291 291 291 288 292 290 289 287 284 288 288 286 283 280 278 277 277 277 277 278 280 281 281 281 280 280 282 288 290 289 288 286 285 285 285 284 283 283 283 283 283 283
294 292 291 298 292 293 294 290 284 284 283 284 284 285 283 280 277 277 277 277 277 278 280 281 279 279 279 280 282 284 285 285 284 284 284 283 283 283 283 283 283 283 283 282
295 292 294 296 296 297 294 288 285 283 282 281 283 284 284 280 279 278 277 278 278 280 280 279 278 279 279 281 282 283 284 283 283 283 282 282 282 282 282 282 283 282 282 282
294 292 297 299 296 297 298 288 289 289 289 281 283 284 286 285 283 281 280 280 280 279 278 278 278 279 279 280 281 282 282 282 282 282 282 282 283 283 283 283 282 281 282 282
295 292 295 296 300 299 295 289 293 293 294 287 287 286 286 287 285 280 279 278 277 278 278 278 278 279 281 281 282 282 282 282 282 282 281 281 281 281 281 281 281 281 282 281
290 290 297 297 298 297 289 292 292 296 298 289 289 289 287 286 284 283 280 279 279 279 279 280 280 281 280 281 282 282 282 281 280 281 281 281 281 281 280 280 280 281 281 281
296 295 293 294 297 298 292 291 293 293 290 291 288 288 287 286 283 281 281 281 280 280 279 279 280 280 281 281 282 282 282 280 280 281 281 281 280 280 280 280 280 280 281 281
297 297 301 300 301 292 292 293 292 295 292 288 289 288 287 285 283 282 281 280 280 280 281 281 281 281 280 280 280 281 280 280 280 280 280 280 280 280 280 279 280 280 280 281
296 295 293 293 292 290 292 291 291 294 294 291 290 289 287 286 284 283 281 281 281 280 280 281 281 282 281 281 280 280 279 279 279 280 280 279 279 279 279 279 279 279 280 280
297 294 295 294 292 292 291 292 293 291 291 291 289 289 288 286 285 284 282 281 281 281 281 280 280 280 280 280 280 280 279 279 279 279 279 278 279 279 279 279 279 278 279 279
295 295 296 298 297 296 296 295 293 292 291 292 290 287 287 286 285 283 282 282 282 281 281 281 281 281 281 280 280 279 279 279 279 279 279 279 279 279 279 278 278 277 277 278
Wind_Speed
4 3 6 11 9 11 15 16 20 18 17 13 12 12 8 14 8 17 22 24 28 30 28 23 16 18 15 16 18 18 16 11 13 16 15 10 10 16 10 16 21 31 43 38
1 5 10 12 13 14 15 21 20 15 11 12 11 17 15 8 19 22 24 27 29 30 30 24 21 15 13 15 16 16 15 13 14 17 18 13 10 12 13 15 19 23 26 27
2 6 12 14 14 17 17 18 14 19 21 18 12 4 10 11 18 25 28 29 31 32 33 29 22 18 11 15 15 16 14 16 15 16 19 15 12 11 15 14 24 16 25 25
5 8 14 13 13 19 18 15 20 20 9 5 8 3 15 14 17 21 30 35 38 43 37 26 19 18 14 13 14 14 17 16 11 16 19 18 12 14 18 19 16 15 26 24
3 10 12 8 15 22 7 24 19 18 8 1 1 1 6 13 19 24 24 37 42 43 28 12 15 15 14 16 12 13 16 17 14 15 18 18 12 11 11 16 9 19 30 26
6 11 3 7 17 12 26 17 10 2 3 0 9 1 8 9 15 21 26 40 43 42 37 30 16 14 11 9 7 14 15 11 12 17 19 21 14 11 17 19 24 27 28 29
11 4 6 12 16 6 19 16 4 3 3 3 6 9 6 14 14 15 21 34 38 38 41 40 31 26 9 3 5 7 6 6 11 16 19 20 19 15 15 20 24 26 27 22
6 7 6 6 5 11 10 5 3 4 5 4 8 4 5 16 16 22 24 27 35 48 45 42 29 25 19 9 5 7 9 17 24 28 27 25 21 20 22 19 23 22 20 19
6 5 7 8 5 16 9 5 8 4 5 3 3 5 4 23 16 24 31 39 43 42 43 39 30 24 19 15 14 15 19 25 32 33 31 31 30 28 28 23 19 19 27 29
2 6 5 3 7 10 5 6 3 3 5 6 3 3 4 22 23 23 25 33 36 38 40 38 28 25 21 21 20 23 30 34 40 40 39 37 36 36 33 30 31 31 33 36
1 2 6 6 6 8 8 5 4 2 2 2 3 2 3 10 14 17 20 28 31 33 34 31 28 23 21 22 25 27 31 41 47 47 46 45 45 45 42 42 40 40 40 41
2 2 4 3 5 5 9 7 4 2 6 1 3 1 2 6 13 18 21 24 26 29 29 33 27 22 23 29 26 27 34 48 48 48 47 47 48 49 52 50 47 43 42 40
4 3 4 4 2 3 4 10 9 4 2 3 3 3 7 16 15 19 19 22 23 25 28 32 28 25 29 30 27 26 46 53 53 51 51 52 51 50 52 49 47 45 44 44
2 1 3 4 6 1 3 7 12 5 2 6 1 10 13 14 13 19 21 20 24 28 30 32 28 30 30 25 23 33 52 51 51 51 51 52 51 49 48 46 47 47 45 42
2 2 1 5 3 2 2 1 5 5 4 2 7 10 9 8 8 15 19 22 25 29 31 31 32 30 26 24 31 49 52 53 52 53 53 53 50 48 47 46 44 44 43 41
1 2 3 4 5 4 5 4 2 4 5 4 2 2 10 11 13 19 19 22 26 26 27 26 31 23 23 25 40 50 51 50 49 50 51 48 46 45 44 43 43 42 40 37
4 3 3 4 4 3 4 2 2 0 1 3 5 4 9 10 15 20 22 21 23 23 24 25 20 20 22 32 42 47 47 45 46 46 45 44 42 42 40 39 37 38 35 32
4 3 1 4 3 5 5 1 7 6 3 2 1 3 2 3 11 18 18 17 21 22 21 19 21 23 30 36 41 41 42 42 42 43 42 40 39 39 36 34 35 32 29 30
4 2 3 2 1 2 1 4 5 5 3 4 3 0 2 5 6 16 17 18 16 15 16 18 22 26 31 35 37 38 39 38 39 39 38 36 33 32 31 30 28 27 27 26
4 3 1 3 1 2 4 3 9 4 3 10 9 7 5 3 4 3 5 12 15 15 15 18 22 27 31 32 32 34 36 35 36 34 33 30 29 28 28 27 25 24 22 22
2 2 3 2 3 5 3 11 9 4 5 20 17 14 10 3 3 11 11 13 15 18 20 21 23 26 27 27 28 30 31 32 30 29 27 26 25 24 24 23 22 20 18 18
6 5 4 1 1 6 16 9 6 6 18 23 18 16 14 15 17 14 14 15 17 20 21 22 23 24 24 23 22 26 27 27 24 22 22 21 20 20 20 17 17 16 16 18
2 5 3 6 4 2 25 2 8 25 29 22 20 20 22 22 20 19 19 18 18 18 18 18 19 21 22 21 21 24 25 22 20 18 18 17 17 16 14 13 14 15 14 12
4 4 2 4 2 4 21 11 14 24 26 25 23 26 25 24 22 21 19 19 18 17 17 17 18 18 18 18 19 19 20 18 15 14 15 15 13 12 12 12 13 12 11 12
3 9 5 5 2 3 13 25 22 28 24 26 26 26 26 25 25 24 23 22 20 20 19 19 18 18 18 17 16 17 16 14 10 11 12 12 11 10 10 8 8 9 10 12
12 8 6 6 14 8 14 34 35 34 34 30 31 30 26 25 25 25 24 23 22 21 21 20 18 17 17 17 16 15 13 11 9 8 9 8 8 8 8 9 10 11 13 15
Wind_Direction
317 297 0 331 321 299 293 307 307 304 302 2 326 322 311 25 31 27 9 355 346 335 327 319 309 276 270 283 268 264 267 280 283 258 239 233 284 290 263 238 255 199 214 218
56 30 351 318 295 314 321 313 305 302 335 319 305 305 300 348 23 10 7 355 340 329 320 306 309 312 291 281 273 267 259 263 267 260 233 229 275 291 235 227 227 232 190 200
346 334 331 335 334 327 320 302 315 312 317 288 251 9 53 36 21 11 6 351 339 327 311 300 292 293 275 275 272 268 265 260 265 258 233 223 247 278 238 225 229 218 219 207
290 328 346 340 317 340 315 336 310 301 319 296 37 141 33 12 3 6 358 347 338 329 321 273 272 274 259 272 272 257 258 275 251 248 224 218 223 216 226 224 232 226 231 203
317 319 332 320 336 331 309 313 301 289 261 256 122 138 9 20 359 352 348 341 338 339 348 305 268 272 268 265 269 286 280 275 231 226 216 209 223 190 206 227 219 222 207 220
281 287 350 352 332 320 335 314 298 202 125 261 41 159 31 15 355 341 343 342 341 346 358 14 347 314 296 275 309 277 276 270 242 214 198 193 196 183 212 216 208 206 210 210
317 78 14 9 334 360 345 353 356 20 29 44 14 63 65 16 6 346 339 334 343 355 7 12 21 38 56 99 223 246 233 201 184 187 192 177 165 172 190 197 199 199 196 204
353 343 26 342 47 330 346 37 55 346 346 321 40 20 122 35 6 354 347 348 358 7 7 15 23 42 52 54 77 153 154 151 133 140 143 136 139 155 167 157 157 160 164 166
347 293 346 47 21 18 323 29 290 274 211 266 84 25 208 353 354 359 360 4 4 2 7 15 28 42 60 84 93 120 137 127 124 131 124 124 125 128 130 134 134 132 122 116
353 295 314 96 7 24 10 337 4 326 17 338 74 88 282 342 340 351 358 1 357 3 13 22 33 45 70 85 94 114 115 114 115 117 116 114 115 113 113 116 113 112 114 113
74 180 301 39 31 27 5 17 322 237 92 259 308 259 26 334 344 347 349 357 358 3 13 30 38 54 74 90 96 97 97 112 111 114 115 116 115 115 119 116 118 119 116 110
79 285 288 212 200 73 85 351 330 45 321 239 211 278 77 24 2 349 359 358 360 14 28 39 51 70 73 89 96 81 88 106 103 107 110 105 105 106 106 107 108 109 103 100
328 335 315 336 269 101 35 358 341 287 276 295 325 36 35 24 3 359 3 3 11 19 42 52 59 64 74 79 81 78 97 101 103 105 105 105 103 101 101 101 100 100 99 97
250 304 145 187 222 210 23 342 354 357 58 318 348 295 354 2 2 352 0 10 24 36 43 54 58 64 71 72 70 83 101 102 105 106 104 103 102 101 101 101 101 101 102 101
49 247 139 276 237 225 130 352 14 11 344 58 310 316 9 1 1 6 1 19 35 42 49 53 53 69 64 62 78 97 100 102 103 103 104 102 103 102 103 103 101 98 97 95
45 290 128 270 240 164 313 73 73 40 343 306 301 301 359 3 26 34 19 28 25 42 60 63 66 66 60 71 87 97 100 102 104 104 104 106 106 106 104 102 99 97 97 97
323 338 5 292 181 148 5 316 91 341 270 290 24 306 355 354 21 27 24 36 41 49 68 74 55 62 72 87 98 101 104 107 106 106 106 105 105 103 101 100 100 97 95 94
323 333 346 280 77 37 242 46 138 138 217 265 264 333 310 46 50 55 53 50 65 75 81 82 79 84 92 99 100 102 105 106 107 105 104 104 103 101 101 99 93 94 94 88
176 296 307 54 276 209 161 222 175 148 288 194 161 351 27 314 331 40 59 74 79 80 86 88 93 96 100 101 105 106 106 105 103 102 101 100 100 101 100 98 98 92 86 85
165 192 304 343 116 226 211 217 138 116 348 185 168 192 168 157 37 280 88 105 113 111 107 108 107 107 106 106 108 109 108 107 103 104 104 106 105 103 99 95 91 89 88 85
226 230 222 238 270 292 178 155 149 84 220 170 176 181 185 219 182 155 139 126 125 122 119 116 115 111 108 112 115 111 109 103 104 105 106 105 101 97 92 90 86 83 82 80
173 161 212 60 33 305 149 131 164 167 145 164 173 182 183 159 152 152 141 132 129 127 129 129 125 120 119 117 115 109 106 106 109 109 107 103 103 102 96 92 90 84 73 64
277 192 197 180 215 159 180 155 166 160 155 167 167 164 163 159 160 157 155 152 149 146 140 135 131 128 127 125 122 119 112 113 110 111 108 105 97 95 97 92 78 67 63 55
232 165 216 37 235 205 194 181 171 169 162 163 167 164 169 166 166 165 166 164 160 157 154 145 138 134 129 127 124 115 114 115 118 115 108 102 100 95 85 73 67 58 50 41
182 144 192 260 162 185 223 211 186 176 174 170 172 176 175 177 176 174 173 174 173 167 161 156 154 148 140 133 129 124 122 118 119 110 105 104 101 93 84 78 69 50 37 29
186 187 176 220 196 180 207 192 183 180 180 181 178 179 185 186 182 182 182 180 178 175 172 169 165 159 152 147 144 137 129 125 119 109 99 89 75 61 48 35 25 18 16 13